Richmond, VA

2:02 PM EDT on May 26, 2018 (GMT -0400)
Richmond International

Weather History for KRIC - May, 2014

Change the Weather History Date:

Monday, May 19, 2014

  Actual Average Record
Temperature  
Mean Temperature 61 °F 67 °F  
Max Temperature 75 °F 79 °F 97 °F (1962)
Min Temperature 47 °F 56 °F 38 °F (1933)
Degree Days  
Heating Degree Days 4 2  
Month to date heating degree days 19 58  
Since 1 July heating degree days 3779 3750  
Cooling Degree Days 0 4  
Month to date cooling degree days 99 53  
Year to date cooling degree days 128 95  
Growing Degree Days 10 (Base 50)    
Moisture  
Dew Point 39 °F    
Average Humidity 51    
Maximum Humidity 80    
Minimum Humidity 22    
Precipitation  
Precipitation 0.00 in 0.12 in 1.40 in (1908)
Month to date precipitation 1.37 2.21  
Year to date precipitation 14.97 15.32  
Snow  
Snow 0.00 in 0.00 in 0.00 in (2002)
Month to date snowfall 0.0 0.0  
Since 1 July snowfall 14.5 10.3  
Snow Depth 0.00 in    
Sea Level Pressure  
Sea Level Pressure 30.26 in    
Wind  
Wind Speed 4 mph (NW)    
Max Wind Speed 14 mph    
Max Gust Speed 17 mph    
Visibility 10 miles    
Events      
T = Trace of Precipitation, MM = Missing Value Source: NWS Daily Summary

Daily Weather History Graph

Daily Weather History Graph

Search for Another Location

Airport or City:

Astronomy

May. 19, 2014 Rise Set
Actual Time 5:56 AM EDT 8:15 PM EDT
Civil Twilight 5:27 AM EDT 8:44 PM EDT
Nautical Twilight 4:51 AM EDT 9:21 PM EDT
Astronomical Twilight 4:11 AM EDT 10:01 PM EDT
Moon 12:02 AM EDT (5/19) 10:50 AM EDT (5/19)
Length of Visible Light 15h 17m
Length of Day
14h 18m
Waning Gibbous, 71% of the Moon is Illuminated
May 19
Waning Gibbous
May 21
Last Quarter
May 28
New
Jun 5
First Quarter
Jun 13
Full

Hourly Weather History & Observations

Time (EDT) Temp. Dew Point Humidity Pressure Visibility Wind Dir Wind Speed Gust Speed Precip Events Conditions
12:54 AM 52.0 °F 44.1 °F 74% 30.26 in 10.0 mi Calm Calm - N/A   Clear
1:54 AM 51.1 °F 43.0 °F 74% 30.25 in 10.0 mi Calm Calm - N/A   Partly Cloudy
2:54 AM 50.0 °F 43.0 °F 77% 30.25 in 10.0 mi Calm Calm - N/A   Partly Cloudy
3:54 AM 48.9 °F 43.0 °F 80% 30.26 in 10.0 mi NW 3.5 mph - N/A   Clear
4:54 AM 48.9 °F 43.0 °F 80% 30.27 in 10.0 mi Calm Calm - N/A   Clear
5:54 AM 48.0 °F 42.1 °F 80% 30.28 in 10.0 mi Calm Calm - N/A   Partly Cloudy
6:54 AM 51.1 °F 43.0 °F 74% 30.31 in 10.0 mi NNW 3.5 mph - N/A   Partly Cloudy
7:54 AM 55.9 °F 45.0 °F 67% 30.32 in 10.0 mi NNW 5.8 mph - N/A   Partly Cloudy
9:54 AM 66.9 °F 39.0 °F 36% 30.33 in 10.0 mi North 6.9 mph - N/A   Partly Cloudy
10:54 AM 69.1 °F 37.0 °F 31% 30.32 in 10.0 mi NNE 6.9 mph - N/A   Clear
11:54 AM 70.0 °F 33.1 °F 26% 30.31 in 10.0 mi Variable 4.6 mph - N/A   Partly Cloudy
12:54 PM 70.0 °F 30.9 °F 24% 30.29 in 10.0 mi Variable 6.9 mph - N/A   Partly Cloudy
1:54 PM 70.0 °F 30.9 °F 24% 30.27 in 10.0 mi Calm Calm - N/A   Partly Cloudy
2:54 PM 73.0 °F 33.1 °F 23% 30.26 in 10.0 mi NW 5.8 mph - N/A   Partly Cloudy
3:54 PM 73.0 °F 32.0 °F 22% 30.25 in 10.0 mi NW 9.2 mph - N/A   Scattered Clouds
4:54 PM 73.9 °F 33.1 °F 22% 30.24 in 10.0 mi North 10.4 mph 16.1 mph N/A   Scattered Clouds
5:54 PM 73.0 °F 33.1 °F 23% 30.23 in 10.0 mi WSW 10.4 mph - N/A   Scattered Clouds
6:54 PM 72.0 °F 34.0 °F 25% 30.22 in 10.0 mi West 8.1 mph - N/A   Scattered Clouds
7:54 PM 69.1 °F 34.0 °F 27% 30.22 in 10.0 mi WNW 6.9 mph - N/A   Scattered Clouds
8:54 PM 60.1 °F 43.0 °F 53% 30.22 in 10.0 mi SW 3.5 mph - N/A   Partly Cloudy
9:54 PM 61.0 °F 41.0 °F 48% 30.23 in 10.0 mi Calm Calm - N/A   Partly Cloudy
10:54 PM 57.9 °F 44.1 °F 60% 30.24 in 10.0 mi SW 3.5 mph - N/A   Clear
11:54 PM 55.9 °F 42.1 °F 60% 30.24 in 10.0 mi Calm Calm - N/A   Clear